Showing default

VIREON-1, 68434

Orbit data source: Space-Track

VIREON-1, 68434 is a UK payload satellite in SSO that was launched on Mon, 30 Mar 2026 UTC via an FALCON 9 launch vehicle from the Air Force Western Test Range (AFWTR). Payload-class satellites include a variety of spacecraft equipped with specific instruments for various scientific and technological missions. These include communications satellites like Starlink; space stations such as the ISS; scientific satellites like the Hubble; Earth observation satellites from companies like Planet Labs, Umbra, and HawkEye 360; GPS; miniature CubeSats for education and research; and military/defense satellites.

Loading next visibility...
Identifier
68434, 2026-067U
Orbit
SSO
Country
Flag of UKUK
Related business
None
Manufacturer
Unknown
Mission
Operational spacecraft
Bus & Motor
Unknown
Mass
Unknown
Launch date (UTC)
2026-03-30 (1 month ago)
Launch vehicle
FALCON 9
Launch site
Air Force Western Test Range (AFWTR)
Object type
Payload
Rocket body
Debris
Shape & HBR
Unknown shape, 1.1 m
Radar Cross Section
RCS unknown

Expand to show TLE details & history
Last TLE update: 14 hours ago

TLE from 14 hours ago
0 VIREON-1
1 68434U 26067U   26126.87230315  .00003555  00000-0  17647-3 0  9998
2 68434  97.4559  85.9808 0003488 104.4149 255.7472 15.18331016  5679
Epoch: 2026-05-06T20:56Z
TLE epoch observation values (Epoch: 2026-05-06T20:56:06.992Z)
Latitude
-0.00004°
Longitude
-92.77489°
Altitude
514.564 km
Speed
7.606 km/s
True Right ascension
05h 43m 55s
True Declination
0° 00' 00"
Sunlit
Object was in daylight at epoch
Visualization orbit readout
Latitude
Unknown
Longitude
Unknown
Altitude
Unknown
Speed
Unknown
Apparent Right ascension
Unknown
Apparent Declination
Unknown
Sunlit
N/A
Visualization observer readout
Local Sidereal Time
19:06:35
Azimuth
Unknown
Elevation
Unknown
Doppler factor
Unknown
Orbital elements
Apogee altitude
510.256 km
Perigee altitude
505.453 km
Semi-major axis
6,885.992 km
Eccentricity
0.00035
Inclination
97.4559°
RAAN
85.9808°
Arg. of periapsis
104.4149°
True anomaly
255.70846°
Mean anomaly
255.7472°
Eccentric anomaly
255.72783°
Mean motion
3.79834 °/min
Orbital period
94.78 mins
BSTAR
0.00017647
Loading maneuver chart data...
Computing Atmospheric mass density...
Loading historical data...
Loading historical data...
Loading historical data...
Loading historical data...
Loading historical data...
Loading historical data...
Loading historical data...

Documentation

Showing up to 5 results
|